Location: Budapest
(47.4979°N, 19.0402°E)
Time: 17:08:34
(UTC+02:00)

Tiangong 1 - Pass Details

Date: 11 October 2017
Orbit: 292 x 319 km, 42.8° (Epoch: 23 October)

Event Time Altitude Azimuth Distance (km) Brightness Sun altitude
Rises 19:29:09 0° 261° (W) 2,042 6.3 -15.3°
Reaches altitude 10° 19:31:18 10° 248° (WSW) 1,205 4.5 -15.6°
Maximum altitude 19:33:38 26° 188° (S) 650 2.2 -16.0°
Enters shadow 19:34:00 25° 172° (S) 667 2.1 -16.1°
